Weather Roundup
Issued by NWS Chicago, IL

Home | Current Version | Previous Version | Graphics & Text | Print | Product List | Glossary On
Versions: 1 2 3 4 5 6 7 8 9 10 11 12 13 14 15 16 17 18 19 20 21 22 23 24 25 26 27 28 29 30 31 32 33 34 35 36 37 38 39 40 41 42 43 44 45 46 47 48 49 50
000
NZUS59 KLOT 282102
HRRLOT

CHICAGO AREA WEATHER ROUNDUP
NATIONAL WEATHER SERVICE CHICAGO/ROMEOVILLE IL
400 PM CDT THU MAY 28 2015

NOTE: "FAIR" INDICATES FEW OR NO CLOUDS BELOW 12,000 FEET WITH NO
SIGNIFICANT WEATHER AND/OR OBSTRUCTIONS TO VISIBILITY.

* THESE STATIONS ARE NOT UNDER NWS QUALITY CONTROL. THEY ALSO MAY NOT
  REPORT WEATHER SUCH AS PRECIPITATION OR FOG.

ILZ005-006-012>014-019>023-282200-
NORTHEAST ILLINOIS

CITY           SKY/WX    TMP DP  RH WIND       PRES   REMARKS
OHARE          PTSUNNY   81  55  40 SE8       30.13F HX  81
MIDWAY         PTSUNNY   83  56  39 E13       30.13F HX  82
AURORA         MOSUNNY   83  52  34 SE12      30.13F HX  82
WAUKEGAN       NOT AVBL
DUPAGE AIRPORT SUNNY     82  55  39 S10       30.13F HX  81
WHEELING       SUNNY     80  53  39 E9        30.15F HX  80
NORTHERLY IS     N/A     71  56  58 N5          N/A
$$

WIZ051-052-058>065-066-070>072-282200-
SOUTHEAST WISCONSIN

CITY           SKY/WX    TMP DP  RH WIND       PRES   REMARKS
MILWAUKEE      PTSUNNY   76  57  51 SE13      30.15F
KENOSHA*       SUNNY     78  54  43 SE14      30.16F
RACINE*        MOSUNNY   75  55  49 S13       30.18F
WAUKESHA       MOSUNNY   79  57  47 SE16      30.15F HX  80
$$

INZ001>003-010>013-019-020-282200-
NORTHWEST INDIANA

CITY           SKY/WX    TMP DP  RH WIND       PRES   REMARKS
GARY*          PTSUNNY   79  57  47 N8        30.15F HX  80
MICHIGAN CITY* NOT AVBL
RENSSELAER*    NOT AVBL
$$

LMZ740>746-282200-
SOUTHERN LAKE MICHIGAN

STATION/POSITION TIME  SKY/WX   TEMP WIND        PRES    VSBY
                                AIR  DIR/SP/G
                 (UTC)          (F)  (DEG/KT/KT) (MB)    (MI)
HARRISON CRIB    2000            62   60/  7/  9   N/A
BURNHAM HARBOR   2100            71  360/  3/  5   N/A
CALUMET HARBOR   1948            71   30/  6/  9   N/A
BURNS HARBOR     2000            70   30/  9/ 19 1021.7F
MICHIGAN CITY    2000            79  120/ 11/ 16   N/A
$$

ABBREVIATIONS USED IN REMARKS
   TC - TEMPERATURE IN CELSIUS
  WCI - WIND CHILL INDEX
   HX - HEAT INDEX
  VSB - VISIBILITY
$$


USA.gov is the U.S. government's official web portal to all federal, state and local government web resources and services.